Location: Nag� el Ma?a??a
(24.0667°N, 32.8833°E)
Time: 17:09:46
(UTC+00:00)

Cosmos 1862 Rocket - Pass Details

Date: 25 September 2021
Orbit: 605 x 633 km, 82.5° (Epoch: 16 October)

Event Time Altitude Azimuth Distance (km) Brightness Sun altitude
Rises 02:40:25 0° 176° (S) 2,844 7.0 -14.0°
Reaches altitude 10° 02:42:38 10° 172° (S) 1,945 6.2 -13.5°
Maximum altitude 02:46:52 58° 93° (E) 712 4.2 -12.5°
Drops below altitude 10° 02:51:08 10° 15° (NNE) 1,966 6.4 -11.6°
Sets 02:53:23 0° 11° (N) 2,877 7.2 -11.1°
